Location: Ulm
(48.3980°N, 9.9777°E)
Time: 09:26:55
(UTC+01:00)

ISS - Pass Details

Date: 11 November 2017
Orbit: 402 x 407 km, 51.6° (Epoch: 19 November)

Event Time Altitude Azimuth Distance (km) Brightness Sun altitude
Exits shadow 05:10:04 42° 38° (NE) 590 -2.8 -21.9°
Drops below altitude 10° 05:12:42 10° 82° (E) 1,456 0.1 -21.4°
Sets 05:14:50 0° 88° (E) 2,315 1.6 -21.1°
